www.pogodaiklimat.ru

Погода и климат >> Архив погоды >> Австралия >> Западная Австралия >> Ньюман


ПОГОДА в Ньюмане

  • Прогноз погоды в Ньюмане
  • Монитор погоды в Ньюмане

АРХИВ ПОГОДЫ в Ньюмане

Время (UTC), дата Ветер
(напр.,м/с)
 
Видим.   Явления Облачность Т
(С)
Тd
(С)
f
(%)
Тe
(С)
Тes
(С)
Комфортность P
(гПа)
Po
(гПа)
Тmin
(С)
Tmax
(С)
R
(мм)
R24
(мм)
S
(см)
01 19.04 ЮЗ 5 н/о н/о +27.2 +12.4 40 +29 +29 жарко 1012.8 954.3 +23.1
03 19.04 ЮЗ 4 н/о н/о +30.5 +11.5 31 +31 +31 жарко 1011.9 953.5
04 19.04 ЮЗ 5 н/о н/о +31.2 +10.5 28 +31 +31 жарко 1010.9 952.5
06 19.04 ЮЗ 6 н/о н/о +31.5 +11.3 29 +32 +32 жарко 1009.8 951.5
07 19.04 ЮЗ 4 н/о н/о +30.7 +10.6 29 +31 +31 жарко 1009.4 951.1
09 19.04 Ю 6 н/о н/о +29.8 +10.9 31 +30 +30 жарко 1009.6 951.3
10 19.04 ЮЗ 6 н/о н/о +28.7 +10.4 32 +29 +29 жарко 1010.2 951.9
12 19.04 ЮЗ 6 н/о н/о +26.5 +8.5 32 +27 +27 жарко 1012.0 953.6
13 19.04 Ю 6 н/о 1/0
[]
+25.8 +6.4 29 +25 +25 комфорт 1012.9 954.4 +32.6
15 19.04 Ю 4 н/о н/о +24.1 +6.4 32 +24 +24 комфорт 1013.6 955.1
16 19.04 Ю 5 н/о н/о +23.3 +7.0 35 +24 +24 комфорт 1014.0 955.5
18 19.04 Ю 5 н/о н/о +20.3 +8.3 46 +21 +21 комфорт 1013.8 955.3
19 19.04 Ю 5 н/о н/о +19.4 +8.1 48 +20 +20 1014.2 955.6
21 19.04 Ю 5 н/о н/о +17.4 +7.5 52 +17 +17 1015.0 956.4
22 19.04 Ю 6 н/о н/о +16.5 +6.6 52 +15 +15 1015.6 957.0
00 20.04 Ю 7 н/о н/о +16.2 +4.9 47 +15 +15 1017.7 958.9
01 20.04 Ю 9 н/о н/о +16.4 +4.1 44 +15 +15 1018.1 959.3 +16.1
03 20.04 ЮВ 6 н/о н/о +19.0 +4.0 37 +19 +19 1017.4 958.7
04 20.04 ЮВ 6 н/о н/о +21.0 +3.7 32 +21 +21 комфорт 1016.5 957.8
06 20.04 ЮВ 6 н/о н/о +23.7 +0.1 21 +23 +23 комфорт 1014.6 956.0
07 20.04 ЮВ 5 н/о н/о +24.0 -1.0 19 +23 +23 комфорт 1014.0 955.5
09 20.04 ЮВ 6 н/о н/о +24.0 -2.5 17 +22 +22 комфорт 1014.2 955.6
10 20.04 Ю 5 н/о н/о +22.8 -2.7 18 +21 +21 комфорт 1014.9 956.3
12 20.04 ЮВ 6 н/о н/о +20.6 -2.5 21 +20 +20 1016.9 958.2
13 20.04 Ю 5 н/о н/о +19.3 -3.5 21 +19 +19 1017.5 958.8 +26.6
15 20.04 ЮВ 6 н/о н/о +17.2 -1.9 27 +16 +16 1017.5 958.8
16 20.04 ЮВ 4 н/о н/о +16.3 -1.7 29 +16 +16 1017.5 958.8
18 20.04 ЮВ 4 н/о н/о +14.4 -2.1 32 +14 +14 1017.7 958.9
19 20.04 ЮВ 3 н/о н/о +13.8 -2.6 32 +13 +13 1018.0 959.2
21 20.04 ЮВ 3 н/о н/о +12.2 -3.6 33 +11 +11 1018.3 959.5
22 20.04 ЮВ 4 н/о н/о +12.0 -4.2 32 +11 +11 1018.8 960.0
00 21.04 В 7 н/о н/о +14.9 -3.9 27 +13 +13 1019.7 960.8
01 21.04 В 7 н/о н/о +16.4 -4.2 24 +15 +15 1019.7 960.8 +11.9
03 21.04 ЮВ 7 н/о н/о +19.3 -4.9 19 +19 +19 1018.9 960.1
04 21.04 ЮВ 6 н/о н/о +20.8 -5.1 17 +20 +20 1017.8 959.0
06 21.04 ЮВ 6 н/о н/о +23.9 -8.3 11 +22 +22 комфорт 1015.7 957.1
07 21.04 В 5 н/о н/о +24.7 -7.7 11 +22 +22 комфорт 1015.2 956.6
09 21.04 ЮВ 6 н/о н/о +24.6 -9.0 10 +22 +22 комфорт 1015.2 956.6
10 21.04 ЮВ 5 н/о н/о +22.9 -8.0 12 +21 +21 комфорт 1015.5 956.9
12 21.04 ЮВ 4 н/о н/о +19.7 -6.8 16 +19 +19 1017.0 958.3
13 21.04 В 3 н/о н/о +18.4 -7.1 17 +19 +19 1018.0 959.2 +25.4
15 21.04 ЮВ 3 н/о н/о +16.9 -6.2 20 +17 +17 1018.1 959.3
16 21.04 ЮВ 3 н/о н/о +16.3 -6.0 21 +16 +16 1017.8 959.0
18 21.04 В 3 н/о н/о +14.4 -4.8 26 +14 +14 1017.3 958.6
19 21.04 ЮВ 2 н/о н/о +12.6 -4.9 29 +13 +13 1017.0 958.3
21 21.04 Ю 2 н/о н/о +10.6 -5.0 33 +10 +10 1017.8 959.0
22 21.04 Ю 2 н/о н/о +8.6 -5.2 37 +8 +8 1017.8 959.0
00 22.04 В 6 н/о н/о +15.8 -2.6 28 +15 +15 1018.6 959.8
01 22.04 В 4 н/о н/о +18.0 -2.8 24 +18 +18 1018.3 959.5 +8.5
03 22.04 В 4 н/о н/о +22.3 -3.9 17 +21 +21 комфорт 1017.1 958.4
04 22.04 В 4 н/о н/о +24.4 -4.8 14 +22 +22 комфорт 1015.9 957.2
06 22.04 В 4 н/о н/о +27.2 -7.0 10 +24 +24 комфорт 1014.0 955.5
07 22.04 В 4 н/о н/о +28.6 -7.3 9 +25 +25 комфорт 1014.0 955.5
09 22.04 ЮВ 4 н/о н/о +28.6 -7.3 9 +25 +25 комфорт 1014.3 955.7
10 22.04 ЮВ 3 н/о н/о +26.1 -6.6 11 +23 +23 комфорт 1014.9 956.3
12 22.04 ЮВ 2 н/о н/о +21.5 -5.3 16 +20 +20 1016.5 957.8
13 22.04 ЮВ 3 н/о н/о +20.4 -4.0 19 +21 +21 комфорт 1016.9 958.2 +29.5
15 22.04 В 3 н/о н/о +20.9 -0.4 24 +21 +21 комфорт 1016.6 957.9
16 22.04 В 2 н/о н/о +19.1 -1.4 25 +20 +20 1016.4 957.7
18 22.04 штиль 0 н/о н/о +13.9 -2.1 33 +14 +14 1016.5 957.8
19 22.04 ЮЗ 2 н/о н/о +12.7 -2.0 36 +13 +13 1016.5 957.8
21 22.04 ЮЗ 3 н/о н/о +11.8 -1.0 41 +11 +11 1016.4 957.7
22 22.04 З 2 н/о н/о +11.1 -0.7 44 +10 +10 1016.8 958.1
00 23.04 В 4 н/о н/о +20.0 +1.9 30 +20 +20 1017.9 959.1
01 23.04 В 4 н/о н/о +23.1 +2.6 26 +23 +23 комфорт 1017.7 958.9 +10.9
03 23.04 СВ 5 н/о н/о +27.8 +3.5 21 +26 +26 жарко 1016.7 958.0
04 23.04 СВ 5 н/о н/о +30.2 +4.0 19 +28 +28 жарко 1015.5 956.9
06 23.04 В 3 н/о н/о +31.0 +0.4 14 +28 +28 жарко 1013.9 955.4
07 23.04 В 2 н/о н/о +31.8 0.0 13 +29 +29 жарко 1013.5 955.0
09 23.04 В 2 н/о н/о +31.3 -0.4 13 +28 +28 жарко 1014.3 955.7
10 23.04 ЮВ 2 н/о н/о +29.4 -0.9 14 +27 +27 жарко 1015.0 956.4
12 23.04 Ю 2 н/о н/о +24.9 -0.3 19 +23 +23 комфорт 1016.3 957.6
13 23.04 ЮВ 3 н/о 3/0
[]
+23.9 -0.4 20 +23 +23 комфорт 1016.7 958.0 +32.7
15 23.04 Ю 3 н/о н/о +21.4 +1.1 26 +21 +21 комфорт 1016.7 958.0
16 23.04 ЮВ 2 н/о 9/0
[]
+20.4 +0.8 27 +21 +21 комфорт 1016.8 958.1
18 23.04 ЮВ 2 н/о н/о +20.5 +0.4 26 +21 +21 комфорт 1016.7 958.0
19 23.04 ЮВ 3 н/о н/о +20.9 +0.7 26 +21 +21 комфорт 1016.8 958.1
21 23.04 В 1 н/о н/о +18.9 +0.5 29 +20 +20 1017.3 958.6
22 23.04 ЮВ 3 н/о н/о +17.7 +0.8 32 +18 +18 1017.9 959.1
00 24.04 В 4 н/о н/о +22.2 +0.1 23 +22 +22 комфорт 1019.2 960.4
01 24.04 В 5 н/о н/о +24.6 -0.5 19 +23 +23 комфорт 1019.4 960.5 +16.2
03 24.04 В 4 н/о н/о +28.9 -0.3 15 +26 +26 жарко 1018.3 959.5
04 24.04 В 4 н/о н/о +30.4 -0.1 14 +27 +27 жарко 1017.0 958.3
06 24.04 ЮВ 5 н/о н/о +32.4 -0.6 12 +29 +29 жарко 1015.2 956.6
07 24.04 В 3 н/о н/о +32.9 -1.4 11 +29 +29 жарко 1014.9 956.3
09 24.04 В 5 н/о н/о +31.3 -2.6 11 +28 +28 жарко 1015.1 956.5
10 24.04 ЮВ 4 н/о н/о +29.1 -3.2 12 +26 +26 жарко 1015.9 957.2
12 24.04 ЮВ 3 н/о н/о +25.0 -3.4 15 +23 +23 комфорт 1017.3 958.6
13 24.04 ЮВ 4 н/о н/о +23.7 -3.6 16 +22 +22 комфорт 1017.7 958.9 +33.0
15 24.04 ЮВ 3 н/о н/о +20.4 -4.0 19 +21 +21 комфорт 1017.5 958.8
16 24.04 Ю 3 н/о н/о +19.1 -3.7 21 +19 +19 1017.7 958.9
18 24.04 Ю 2 н/о н/о +15.0 -3.8 27 +15 +15 1017.3 958.6
19 24.04 Ю 2 н/о н/о +14.6 -3.2 29 +15 +15 1017.1 958.4
21 24.04 В 2 н/о н/о +17.0 -0.7 30 +18 +18 1017.2 958.5
22 24.04 Ю 2 н/о н/о +15.0 -1.5 32 +15 +15 1017.7 958.9
00 25.04 В 5 н/о н/о +22.1 +2.2 27 +22 +22 комфорт 1018.5 959.7
01 25.04 В 6 н/о н/о +24.3 +3.0 25 +24 +24 комфорт 1018.4 959.6 +14.0
03 25.04 В 7 н/о н/о +28.1 +3.7 21 +27 +27 жарко 1017.2 958.5
04 25.04 В 6 н/о н/о +29.3 +3.3 19 +27 +27 жарко 1016.0 957.3
06 25.04 В 5 н/о н/о +30.9 +1.3 15 +28 +28 жарко 1014.2 955.6
07 25.04 В 5 н/о н/о +31.3 +0.6 14 +28 +28 жарко 1013.8 955.3
09 25.04 В 5 н/о н/о +30.1 -0.3 14 +27 +27 жарко 1014.3 955.7
10 25.04 В 4 н/о н/о +28.5 +1.1 17 +26 +26 жарко 1014.9 956.3
12 25.04 ЮВ 3 н/о н/о +25.1 +1.9 22 +24 +24 комфорт 1016.7 958.0
13 25.04 ЮВ 3 н/о н/о +23.7 +2.0 24 +23 +23 комфорт 1017.3 958.6 +31.9
15 25.04 В 2 н/о н/о +22.0 +2.7 28 +22 +22 комфорт 1017.0 958.3
16 25.04 В 3 н/о н/о +22.7 +2.8 27 +22 +22 комфорт 1016.9 958.2
18 25.04 ЮВ 1 н/о н/о +19.3 +2.6 33 +21 +21 комфорт 1016.8 958.1
19 25.04 ЮВ 3 н/о н/о +20.0 +2.8 32 +21 +21 комфорт 1016.7 958.0
21 25.04 В 5 н/о н/о +20.0 +1.9 30 +20 +20 1017.2 958.5
22 25.04 В 5 н/о н/о +19.3 +1.8 31 +19 +19 1017.7 958.9
00 26.04 В 7 н/о н/о +21.1 +1.9 28 +21 +21 комфорт 1018.5 959.7
01 26.04 В 6 н/о н/о +23.3 +1.6 24 +23 +23 комфорт 1018.7 959.9 +19.1

 

Местоположение метеостанции Ньюман (Западная Австралия, Австралия): широта -23.41 долгота 119.80 высота над уровнем моря 524 м.

В архиве по умолчанию представлена погода в Ньюмане за последнюю неделю. Архивные данные за месяц целиком и за предыдущие месяцы, начиная с января 2011 года, Вы можете получить, выбрав интересующий диапазон дат из раскрывающегося списка и нажав кнопку "Ввод!".


*Определитесь, кто Вы:
робот инопланетянин человек

Внимание! Время в таблицах - всемирное. Для получения местного времени необходимо прибавить поправку, которая равна 8 ч.

Смотрите также архив погоды в соседних городах и на ближайших метеорологических станциях:

Погода в Параберду (Западная Австралия, Австралия) (211 км)
Погода в Марбл-баре (Западная Австралия, Австралия) (248 км)
Погода в Телфере (Западная Австралия, Австралия) (311 км)
Погода в Порт-Хедленде Apardoo (Западная Австралия, Австралия) (360 км)
Погода в Микатарре (Западная Австралия, Австралия) (378 км)
Погода в Роборн аэропорту (Западная Австралия, Австралия) (403 км)
Погода в Мандоре (Западная Австралия, Австралия) (423 км)
Погода в Каррате (Западная Австралия, Австралия) (432 км)
Погода в Марди (Западная Австралия, Австралия) (466 км)
Погода в Леинстере (Западная Австралия, Австралия) (502 км)

Пояснения к столбцам:

Ветер - указаны скорость ветра в м/с - средняя за 10 мин, порывы в срок и между сроками (в фигурных скобках) и направление, откуда дует ветер: С - северный, СВ - северо-восточный, В - восточный, ЮВ - юго-восточный, Ю - южный, ЮЗ - юго-западный, З - западный, СЗ - северо-западный.
Видимость - горизонтальная дальность видимости в метрах или километрах. При видимости от 1 до 10 км при отсутствии осадков обычно наблюдается дымка, при ухудшении видимости до 1 км и менее - туман. В сухую погоду видимость может ухудшаться дымом, пылью или мглою.
Явления - указаны атмосферные явления, наблюдавшиеся в срок или в последний час перед сроком; фигурными скобками обозначены явления, наблюдавшиеся между сроками (за 1-3 часа до срока); квадратными скобками обозначены град или гололедные отложения с указанием их диаметра в мм.
Облачность - указаны через наклонную черту общая и нижняя облачность в баллах и высота нижней границы облаков в метрах; квадратными скобками обозначены формы облаков: Ci - перистые, Cs - перисто-слоистые, Cc - перисто-кучевые, Ac - высококучевые, As - высокослоистые, Sc - слоисто-кучевые, Ns - слоисто-дождевые, Cu - кучевые, Cb - кучево-дождевые. Подробнее классификацию облаков см. в Атласе облаков (PDF).
T - Температура воздуха - температура, измеренная на высоте 2 м над землей.
Td - Температура точки росы - температура, при понижении до которой содержащийся в воздухе водяной пар достигнет насыщения.
f - Относительная влажность воздуха - влажноcть воздуха, измеренная на высоте 2 м над землей.
Te - Эффективная температура - температура, которую ощущает одетый по сезону человек в тени. Характеристика душности погоды. При расчете учитывается влияние влажности воздуха и скорости ветра на теплоощущения человека.
Tes - Эффективная температура на солнце - температура, которую ощущает человек, с поправкой на солнечный нагрев. Характеристика знойности погоды. Зависит от высоты солнца над горизонтом, облачности и скорости ветра. Ночью, в пасмурную погоду, а также при ветре 12 м/с и более поправка равна нулю.
P - Атмосферное давление - приведенное к уровню моря атмосферное давление.
Po - Атмосферное давление - измеренное на уровне метеостанции атмосферное давление.
Tmin - Минимальная температура - минимум температуры воздуха на высоте 2 м над землей.
Tmax - Максимальная температура - максимум температуры воздуха на высоте 2 м над землей.
R - Количество осадков - Количество выпавших осадков за период времени, мм. При наведении курсора мыши на число - период времени, за который выпало указанное количество осадков.
R24 - Количество осадков - Количество выпавших осадков за 24 часа, мм.
S - Снежный покров - Высота снежного покрова, см. При наведении курсора мыши на число - состояние снежного покрова и степень покрытия местности в баллах.